Topeka, KS

2:05 AM CST on February 10, 2016 (GMT -0600)
Forbes

Weather History for KFOE - February, 2014

Change the Weather History Date:

Friday, February 21, 2014

  Actual Average Record
Temperature  
Mean Temperature 42 °F -  
Max Temperature 59 °F 47 °F 76 °F (1977)
Min Temperature 25 °F 26 °F 0 °F (1978)
Degree Days  
Heating Degree Days 23    
Moisture  
Dew Point 20 °F    
Average Humidity 49    
Maximum Humidity 75    
Minimum Humidity 21    
Precipitation  
Precipitation 0.00 in - - ()
Sea Level Pressure  
Sea Level Pressure 29.89 in    
Wind  
Wind Speed 10 mph (WSW)    
Max Wind Speed 28 mph    
Max Gust Speed 36 mph    
Visibility 10 miles    
Events      
Averages and records for this station are not official NWS values.
T = Trace of Precipitation, MM = Missing Value Source: NWS Daily Summary

Daily Weather History Graph

Daily Weather History Graph

Search for Another Location

Airport or City:

Trip Planner

Search our weather history database for the weather conditions in past years. The results will help you decide how hot, cold, wet, or windy it might be!

Date:

Astronomy

Feb. 21, 2014 Rise Set
Actual Time 7:06 AM CST 6:06 PM CST
Civil Twilight 6:39 AM CST 6:33 PM CST
Nautical Twilight 6:08 AM CST 7:04 PM CST
Astronomical Twilight 5:37 AM CST 7:35 PM CST
Moon No Moon Rise 10:34 AM CST (2/21)
Length of Visible Light 11h 54m
Length of Day
11h 00m
Waning Gibbous, 60% of the Moon is Illuminated
Feb 21
Waning Gibbous
Feb 22
Last Quarter
Mar 1
New
Mar 8
First Quarter
Mar 16
Full

Hourly Weather History & Observations

Time (CST) Temp. Windchill Dew Point Humidity Pressure Visibility Wind Dir Wind Speed Gust Speed Precip Events Conditions
12:53 AM 32.0 °F 24.2 °F 17.1 °F 54% 29.90 in 10.0 mi WNW 9.2 mph - N/A   Clear
1:53 AM 28.9 °F 21.9 °F 18.0 °F 64% 29.92 in 10.0 mi West 6.9 mph - N/A   Clear
2:53 AM 25.0 °F 18.1 °F 18.0 °F 75% 29.91 in 10.0 mi SSW 5.8 mph - N/A   Clear
3:53 AM 30.0 °F 20.5 °F 19.9 °F 66% 29.92 in 10.0 mi WSW 11.5 mph - N/A   Clear
4:53 AM 30.0 °F 20.0 °F 19.9 °F 66% 29.93 in 10.0 mi WSW 12.7 mph - N/A   Clear
5:53 AM 28.0 °F 24.2 °F 19.0 °F 69% 29.94 in 10.0 mi SW 3.5 mph - N/A   Clear
6:53 AM 28.0 °F 24.2 °F 18.0 °F 66% 29.94 in 10.0 mi South 3.5 mph - N/A   Clear
7:53 AM 30.0 °F 21.7 °F 21.0 °F 69% 29.93 in 10.0 mi SSW 9.2 mph - N/A   Clear
8:53 AM 35.1 °F 26.4 °F 21.9 °F 59% 29.93 in 10.0 mi SSW 12.7 mph - N/A   Clear
9:53 AM 41.0 °F 34.3 °F 23.0 °F 49% 29.92 in 10.0 mi SW 11.5 mph - N/A   Clear
10:53 AM 46.9 °F - 21.0 °F 36% 29.88 in 10.0 mi SSW 13.8 mph - N/A   Clear
11:53 AM 53.1 °F - 19.9 °F 27% 29.85 in 10.0 mi SW 18.4 mph 29.9 mph N/A   Clear
12:53 PM 55.9 °F - 19.9 °F 25% 29.83 in 10.0 mi West 24.2 mph 29.9 mph N/A   Clear
1:53 PM 57.9 °F - 21.0 °F 24% 29.80 in 10.0 mi West 18.4 mph 27.6 mph N/A   Clear
2:53 PM 59.0 °F - 19.0 °F 21% 29.81 in 10.0 mi West 25.3 mph 31.1 mph N/A   Clear
3:53 PM 59.0 °F - 19.0 °F 21% 29.81 in 10.0 mi West 27.6 mph 35.7 mph N/A   Clear
4:53 PM 57.0 °F - 21.0 °F 25% 29.83 in 10.0 mi West 19.6 mph - N/A   Clear
5:53 PM 52.0 °F - 19.9 °F 28% 29.86 in 10.0 mi WNW 13.8 mph - N/A   Clear
6:53 PM 43.0 °F 38.8 °F 19.9 °F 40% 29.89 in 10.0 mi WNW 6.9 mph - N/A   Clear
7:53 PM 39.0 °F 34.0 °F 21.0 °F 49% 29.91 in 10.0 mi WSW 6.9 mph - N/A   Clear
8:53 PM 35.1 °F - 21.9 °F 59% 29.91 in 10.0 mi Calm Calm - N/A   Clear
9:53 PM 34.0 °F - 23.0 °F 64% 29.92 in 10.0 mi Calm Calm - N/A   Clear
10:53 PM 33.1 °F 30.0 °F 21.9 °F 64% 29.92 in 10.0 mi SW 3.5 mph - N/A   Clear
11:53 PM 33.1 °F 30.0 °F 21.9 °F 64% 29.92 in 10.0 mi SW 3.5 mph - N/A   Clear